,�O�C���x[��],����1,�O�C���x[��],����2,���ԉ��x[��],����3,���Ԏ��x[��],����4,�m��2(��󒲎�)���x[��],����5,����[��],����6
2004/10/1 0:00,19.2,0,64,0 ,25.1,0 ,65,0 ,24.5,0 ,23.3,0 
2004/10/1 0:15,19.4,0,62,0 ,25.1,0 ,64,0 ,24.4,0 ,23.3,0 
2004/10/1 0:30,19.2,0,62,0 ,25,0 ,64,0 ,24.4,0 ,23.4,0 
2004/10/1 0:45,19.2,0,62,0 ,25,0 ,64,0 ,24.4,0 ,23.4,0 
2004/10/1 1:00,19.3,0,61,0 ,25,0 ,64,0 ,24.4,0 ,23.4,0 
2004/10/1 1:15,19.3,0,61,0 ,24.9,0 ,64,0 ,24.3,0 ,23.5,0 
2004/10/1 1:30,19.3,0,60,0 ,24.9,0 ,64,0 ,24.3,0 ,23.5,0 
2004/10/1 1:45,19.2,0,60,0 ,24.9,0 ,64,0 ,24.3,0 ,23.5,0 
2004/10/1 2:00,19.2,0,60,0 ,24.8,0 ,64,0 ,24.3,0 ,23.6,0 
2004/10/1 2:15,19.2,0,59,0 ,24.8,0 ,64,0 ,24.2,0 ,23.6,0 
2004/10/1 2:30,19.3,0,59,0 ,24.8,0 ,64,0 ,24.2,0 ,23.6,0 
2004/10/1 2:45,19.2,0,59,0 ,24.8,0 ,64,0 ,24.2,0 ,23.6,0 
2004/10/1 3:00,19.3,0,59,0 ,24.7,0 ,63,0 ,24.2,0 ,23.6,0 
2004/10/1 3:15,19.2,0,59,0 ,24.8,0 ,63,0 ,24.1,0 ,23.7,0 
2004/10/1 3:30,18.8,0,62,0 ,24.7,0 ,63,0 ,24.1,0 ,23.7,0 
2004/10/1 3:45,18.1,0,68,0 ,24.7,0 ,63,0 ,24.1,0 ,23.7,0 
2004/10/1 4:00,18,0,69,0 ,24.6,0 ,62,0 ,24.1,0 ,23.7,0 
2004/10/1 4:15,17.2,0,72,0 ,24.6,0 ,62,0 ,24.1,0 ,23.7,0 
2004/10/1 4:30,17.1,0,73,0 ,24.7,0 ,62,0 ,24.1,0 ,23.8,0 
2004/10/1 4:45,16.8,0,75,0 ,24.7,0 ,63,0 ,24.1,0 ,23.8,0 
2004/10/1 5:00,16.7,0,76,0 ,24.7,0 ,62,0 ,24.1,0 ,23.8,0 
2004/10/1 5:15,16.4,0,78,0 ,24.6,0 ,62,0 ,24.1,0 ,23.8,0 
2004/10/1 5:30,16.2,0,80,0 ,24.5,0 ,62,0 ,24,0 ,23.8,0 
2004/10/1 5:45,15.7,0,84,0 ,24.6,0 ,62,0 ,24,0 ,23.4,0 
2004/10/1 6:00,16.1,0,86,0 ,24.6,0 ,62,0 ,24.1,0 ,23.4,0 
2004/10/1 6:15,16.5,0,79,0 ,24.8,0 ,63,0 ,24.1,0 ,22.9,0 
2004/10/1 6:30,17,0,76,0 ,25,0 ,63,0 ,24.2,0 ,23,0 
2004/10/1 6:45,17.8,0,73,0 ,25.1,0 ,62,0 ,24.2,0 ,22.8,0 
2004/10/1 7:00,18.7,0,68,0 ,25.2,0 ,61,0 ,24.2,0 ,22.8,0 
2004/10/1 7:15,18.3,0,68,0 ,25.3,0 ,59,0 ,24.2,0 ,22.9,0 
2004/10/1 7:30,18.6,0,67,0 ,25.4,0 ,57,0 ,24.2,0 ,22.9,0 
2004/10/1 7:45,19.4,0,64,0 ,25.4,0 ,56,0 ,24.2,0 ,23,0 
2004/10/1 8:00,20.6,0,59,0 ,25.4,0 ,55,0 ,24.1,0 ,23,0 
2004/10/1 8:15,21.5,0,57,0 ,25.3,0 ,55,0 ,24.1,0 ,23.1,0 
2004/10/1 8:30,22.9,0,50,0 ,25.4,0 ,54,0 ,24.1,0 ,23.1,0 
2004/10/1 8:45,24,0,46,0 ,25.5,0 ,54,0 ,24.2,0 ,23.2,0 
2004/10/1 9:00,23.9,0,46,0 ,25.5,0 ,54,0 ,24.2,0 ,23.2,0 
2004/10/1 9:15,24.6,0,43,0 ,25.4,0 ,54,0 ,24.2,0 ,23.2,0 
2004/10/1 9:30,24.7,0,43,0 ,25.4,0 ,53,0 ,24.2,0 ,23.3,0 
2004/10/1 9:45,26.7,0,38,0 ,25.3,0 ,53,0 ,24.2,0 ,23.3,0 
2004/10/1 10:00,27.9,0,33,0 ,25.3,0 ,53,0 ,24.1,0 ,23.4,0 
2004/10/1 10:15,29.7,0,27,0 ,25.3,0 ,53,0 ,24.1,0 ,23.4,0 
2004/10/1 10:30,30,0,25,0 ,25.2,0 ,51,0 ,24.1,0 ,23.4,0 
2004/10/1 10:45,30.5,0,24,0 ,25.2,0 ,51,0 ,24.1,0 ,23.5,0 
2004/10/1 11:00,28.8,0,27,0 ,25.2,0 ,51,0 ,24.1,0 ,23.5,0 
2004/10/1 11:15,25.6,0,34,0 ,25.1,0 ,50,0 ,24.1,0 ,23.5,0 
2004/10/1 11:30,25,0,34,0 ,25.1,0 ,50,0 ,24.1,0 ,23.5,0 
2004/10/1 11:45,25,0,36,0 ,25,0 ,48,0 ,24.1,0 ,23.6,0 
2004/10/1 12:00,24.8,0,32,0 ,25,0 ,48,0 ,24,0 ,23.6,0 
2004/10/1 12:15,24.9,0,36,0 ,25,0 ,48,0 ,24,0 ,23.6,0 
2004/10/1 12:30,25,0,36,0 ,25,0 ,48,0 ,24,0 ,23.6,0 
2004/10/1 12:45,25.2,0,33,0 ,25,0 ,48,0 ,24,0 ,23.7,0 
2004/10/1 13:00,25.2,0,32,0 ,25,0 ,48,0 ,24,0 ,23.7,0 
2004/10/1 13:15,25.6,0,33,0 ,25,0 ,50,0 ,24,0 ,23.7,0 
2004/10/1 13:30,25.5,0,34,0 ,25,0 ,49,0 ,24,0 ,23.7,0 
2004/10/1 13:45,25.5,0,35,0 ,25,0 ,49,0 ,24,0 ,23.7,0 
2004/10/1 14:00,25.7,0,34,0 ,25,0 ,49,0 ,24,0 ,23.8,0 
2004/10/1 14:15,25.8,0,33,0 ,25,0 ,49,0 ,24,0 ,23.8,0 
2004/10/1 14:30,25.5,0,38,0 ,25,0 ,49,0 ,24,0 ,23.8,0 
2004/10/1 14:45,25.6,0,41,0 ,25,0 ,49,0 ,24,0 ,23.8,0 
2004/10/1 15:00,25,0,46,0 ,25.1,0 ,50,0 ,24.1,0 ,23.8,0 
2004/10/1 15:15,24.8,0,50,0 ,25.1,0 ,52,0 ,24.1,0 ,23.9,0 
2004/10/1 15:30,24.2,0,53,0 ,25.1,0 ,53,0 ,24.1,0 ,23.9,0 
2004/10/1 15:45,23.9,0,54,0 ,25.1,0 ,54,0 ,24.1,0 ,23.9,0 
2004/10/1 16:00,23.7,0,56,0 ,25,0 ,54,0 ,24.1,0 ,23.9,0 
2004/10/1 16:15,23.4,0,57,0 ,25,0 ,54,0 ,24.1,0 ,23.9,0 
2004/10/1 16:30,23,0,59,0 ,24.9,0 ,55,0 ,24.1,0 ,24,0 
2004/10/1 16:45,22.6,0,61,0 ,24.8,0 ,55,0 ,24.1,0 ,24,0 
2004/10/1 17:00,22.1,0,64,0 ,24.6,0 ,56,0 ,24.1,0 ,24,0 
2004/10/1 17:15,21.6,0,65,0 ,24.6,0 ,56,0 ,24,0 ,24,0 
2004/10/1 17:30,21,0,66,0 ,24.5,0 ,55,0 ,24,0 ,24,0 
2004/10/1 17:45,20.8,0,69,0 ,24.4,0 ,56,0 ,24,0 ,24,0 
2004/10/1 18:00,20.4,0,71,0 ,24.3,0 ,56,0 ,24,0 ,24,0 
2004/10/1 18:15,20.1,0,72,0 ,24.3,0 ,56,0 ,23.9,0 ,24,0 
2004/10/1 18:30,19.9,0,74,0 ,24.3,0 ,56,0 ,23.9,0 ,24,0 
2004/10/1 18:45,19.5,0,75,0 ,24.2,0 ,56,0 ,23.9,0 ,24,0 
2004/10/1 19:00,19.3,0,76,0 ,24.3,0 ,57,0 ,23.9,0 ,24,0 
2004/10/1 19:15,19,0,77,0 ,24.5,0 ,56,0 ,23.9,0 ,24,0 
2004/10/1 19:30,18.8,0,79,0 ,24.6,0 ,58,0 ,24.1,0 ,24,0 
2004/10/1 19:45,18.9,0,79,0 ,24.7,0 ,59,0 ,24.2,0 ,24,0 
2004/10/1 20:00,18.8,0,79,0 ,24.8,0 ,58,0 ,24.1,0 ,24.1,0 
2004/10/1 20:15,18.9,0,79,0 ,24.8,0 ,59,0 ,24.1,0 ,24.1,0 
2004/10/1 20:30,18.8,0,78,0 ,24.9,0 ,59,0 ,24.2,0 ,22.7,0 
2004/10/1 20:45,18.6,0,80,0 ,24.9,0 ,59,0 ,24.2,0 ,22.8,0 
2004/10/1 21:00,18.4,0,83,0 ,25,0 ,59,0 ,24.3,0 ,22.6,0 
2004/10/1 21:15,18.5,0,83,0 ,25,0 ,60,0 ,24.3,0 ,22.7,0 
2004/10/1 21:30,18.7,0,82,0 ,25.1,0 ,61,0 ,24.3,0 ,22.8,0 
2004/10/1 21:45,18.3,0,84,0 ,25.1,0 ,61,0 ,24.3,0 ,22.9,0 
2004/10/1 22:00,18.1,0,82,0 ,25.1,0 ,60,0 ,24.3,0 ,22.9,0 
2004/10/1 22:15,17.9,0,80,0 ,25.1,0 ,60,0 ,24.2,0 ,23,0 
2004/10/1 22:30,18.1,0,81,0 ,25.1,0 ,60,0 ,24.2,0 ,23,0 
2004/10/1 22:45,18,0,83,0 ,25,0 ,62,0 ,24.2,0 ,23,0 
2004/10/1 23:00,17.7,0,83,0 ,24.9,0 ,63,0 ,24.2,0 ,23.1,0 
2004/10/1 23:15,17.6,0,85,0 ,25,0 ,63,0 ,24.2,0 ,23.1,0 
2004/10/1 23:30,17.5,0,84,0 ,25,0 ,63,0 ,24.2,0 ,23.2,0 
2004/10/1 23:45,17.5,0,83,0 ,25,0 ,63,0 ,24.2,0 ,23.2,0 
2004/10/2 0:00,17.2,0,83,0 ,25,0 ,63,0 ,24.2,0 ,23.2,0 
2004/10/2 0:15,17.1,0,82,0 ,25,0 ,63,0 ,24.1,0 ,23.2,0 
2004/10/2 0:30,17,0,81,0 ,25,0 ,62,0 ,24.1,0 ,23.3,0 
2004/10/2 0:45,17,0,82,0 ,25,0 ,62,0 ,24.1,0 ,23.3,0 
2004/10/2 1:00,17.3,0,82,0 ,24.9,0 ,62,0 ,24.1,0 ,23.3,0 
2004/10/2 1:15,17.4,0,82,0 ,24.9,0 ,62,0 ,24.1,0 ,23.2,0 
2004/10/2 1:30,16.9,0,87,0 ,24.9,0 ,62,0 ,24.1,0 ,23,0 
2004/10/2 1:45,17.3,0,86,0 ,24.8,0 ,62,0 ,24,0 ,23.1,0 
2004/10/2 2:00,17.3,0,85,0 ,24.8,0 ,62,0 ,24,0 ,23.1,0 
2004/10/2 2:15,17.3,0,85,0 ,24.8,0 ,62,0 ,24,0 ,23.2,0 
2004/10/2 2:30,17.4,0,85,0 ,24.7,0 ,61,0 ,24,0 ,23.2,0 
2004/10/2 2:45,17.1,0,85,0 ,24.7,0 ,61,0 ,24,0 ,23.2,0 
2004/10/2 3:00,17.1,0,86,0 ,24.7,0 ,61,0 ,23.9,0 ,23.3,0 
2004/10/2 3:15,17.2,0,85,0 ,24.6,0 ,61,0 ,23.9,0 ,23.3,0 
2004/10/2 3:30,17.2,0,85,0 ,24.7,0 ,60,0 ,23.9,0 ,23.3,0 
2004/10/2 3:45,17,0,86,0 ,24.6,0 ,60,0 ,23.9,0 ,23.3,0 
2004/10/2 4:00,17.2,0,85,0 ,24.6,0 ,60,0 ,23.9,0 ,23.4,0 
2004/10/2 4:15,17.1,0,85,0 ,24.6,0 ,60,0 ,23.9,0 ,23.4,0 
2004/10/2 4:30,17.2,0,84,0 ,24.6,0 ,60,0 ,23.9,0 ,23.4,0 
2004/10/2 4:45,17,0,85,0 ,24.6,0 ,60,0 ,23.9,0 ,23.4,0 
2004/10/2 5:00,16.9,0,85,0 ,24.5,0 ,60,0 ,23.8,0 ,23.4,0 
2004/10/2 5:15,16.5,0,87,0 ,24.5,0 ,59,0 ,23.8,0 ,23.4,0 
2004/10/2 5:30,16.4,0,87,0 ,24.5,0 ,59,0 ,23.8,0 ,23.5,0 
2004/10/2 5:45,16.1,0,89,0 ,24.5,0 ,59,0 ,23.8,0 ,23.5,0 
2004/10/2 6:00,16.3,0,89,0 ,24.5,0 ,59,0 ,23.8,0 ,23.5,0 
2004/10/2 6:15,16.3,0,88,0 ,24.5,0 ,59,0 ,23.8,0 ,23.3,0 
2004/10/2 6:30,16.9,0,86,0 ,24.6,0 ,60,0 ,23.8,0 ,23.2,0 
2004/10/2 6:45,16.9,0,84,0 ,24.7,0 ,60,0 ,23.8,0 ,23.3,0 
2004/10/2 7:00,17.4,0,81,0 ,24.7,0 ,60,0 ,23.9,0 ,22.9,0 
2004/10/2 7:15,18.4,0,77,0 ,24.8,0 ,60,0 ,23.9,0 ,22.5,0 
2004/10/2 7:30,19.9,0,71,0 ,24.8,0 ,60,0 ,23.9,0 ,22.6,0 
2004/10/2 7:45,20.6,0,64,0 ,25,0 ,59,0 ,23.9,0 ,22.6,0 
2004/10/2 8:00,21.4,0,62,0 ,25.1,0 ,59,0 ,24.1,0 ,22.7,0 
2004/10/2 8:15,21.9,0,58,0 ,25.1,0 ,55,0 ,24.1,0 ,22.8,0 
2004/10/2 8:30,22.7,0,56,0 ,25.1,0 ,56,0 ,24,0 ,22.8,0 
2004/10/2 8:45,23.5,0,52,0 ,25.2,0 ,55,0 ,24,0 ,22.9,0 
2004/10/2 9:00,24.2,0,50,0 ,25.1,0 ,54,0 ,23.9,0 ,22.5,0 
2004/10/2 9:15,25.1,0,49,0 ,24.9,0 ,55,0 ,23.7,0 ,22.6,0 
2004/10/2 9:30,26.1,0,45,0 ,24.8,0 ,55,0 ,23.6,0 ,22.6,0 
2004/10/2 9:45,26.7,0,42,0 ,24.7,0 ,55,0 ,23.5,0 ,22.1,0 
2004/10/2 10:00,27.8,0,40,0 ,24.6,0 ,56,0 ,23.4,0 ,22,0 
2004/10/2 10:15,28.4,0,38,0 ,24.5,0 ,56,0 ,23.3,0 ,22.1,0 
2004/10/2 10:30,29.6,0,36,0 ,24.6,0 ,56,0 ,23.3,0 ,22.1,0 
2004/10/2 10:45,30.2,0,34,0 ,24.6,0 ,56,0 ,23.3,0 ,22.2,0 
2004/10/2 11:00,29.8,0,35,0 ,24.6,0 ,57,0 ,23.3,0 ,22.2,0 
2004/10/2 11:15,26.9,0,44,0 ,24.6,0 ,57,0 ,23.3,0 ,22.3,0 
2004/10/2 11:30,25.7,0,49,0 ,24.7,0 ,57,0 ,23.3,0 ,22.3,0 
2004/10/2 11:45,25.7,0,49,0 ,24.8,0 ,57,0 ,23.4,0 ,22.3,0 
2004/10/2 12:00,25.9,0,49,0 ,24.8,0 ,58,0 ,23.5,0 ,22.4,0 
2004/10/2 12:15,26.1,0,49,0 ,24.9,0 ,57,0 ,23.5,0 ,22.4,0 
2004/10/2 12:30,26.6,0,48,0 ,24.9,0 ,58,0 ,23.6,0 ,22.5,0 
2004/10/2 12:45,26.9,0,46,0 ,25,0 ,58,0 ,23.7,0 ,22.6,0 
2004/10/2 13:00,26.9,0,46,0 ,25,0 ,57,0 ,23.7,0 ,22.6,0 
2004/10/2 13:15,27.2,0,44,0 ,25.1,0 ,57,0 ,23.8,0 ,22.6,0 
2004/10/2 13:30,27.6,0,43,0 ,25.1,0 ,56,0 ,23.8,0 ,22.7,0 
2004/10/2 13:45,27.8,0,43,0 ,25.2,0 ,57,0 ,23.9,0 ,22.7,0 
2004/10/2 14:00,27.5,0,45,0 ,25.2,0 ,58,0 ,23.9,0 ,22.8,0 
2004/10/2 14:15,27.7,0,43,0 ,25.3,0 ,57,0 ,24,0 ,22.8,0 
2004/10/2 14:30,27.4,0,43,0 ,25.4,0 ,56,0 ,24.1,0 ,22.9,0 
2004/10/2 14:45,27.6,0,44,0 ,25.5,0 ,56,0 ,24.1,0 ,22.9,0 
2004/10/2 15:00,27.5,0,45,0 ,25.5,0 ,57,0 ,24.1,0 ,23,0 
2004/10/2 15:15,27.2,0,47,0 ,25.6,0 ,57,0 ,24.2,0 ,23,0 
2004/10/2 15:30,27.2,0,46,0 ,25.6,0 ,57,0 ,24.2,0 ,22.6,0 
2004/10/2 15:45,27.3,0,46,0 ,25.6,0 ,57,0 ,24.3,0 ,22.5,0 
2004/10/2 16:00,27.1,0,47,0 ,25.6,0 ,58,0 ,24.2,0 ,22.6,0 
2004/10/2 16:15,26.9,0,48,0 ,25.6,0 ,58,0 ,24.3,0 ,22.7,0 
2004/10/2 16:30,26.5,0,49,0 ,25.5,0 ,58,0 ,24.3,0 ,22.8,0 
2004/10/2 16:45,26.2,0,50,0 ,25.5,0 ,58,0 ,24.3,0 ,22.9,0 
2004/10/2 17:00,26.1,0,52,0 ,25.4,0 ,58,0 ,24.3,0 ,23,0 
2004/10/2 17:15,25.9,0,52,0 ,25.4,0 ,59,0 ,24.3,0 ,23,0 
2004/10/2 17:30,25.5,0,54,0 ,25.4,0 ,59,0 ,24.3,0 ,23.1,0 
2004/10/2 17:45,25.3,0,55,0 ,25.4,0 ,59,0 ,24.4,0 ,23.2,0 
2004/10/2 18:00,24.7,0,59,0 ,25.5,0 ,61,0 ,24.4,0 ,23.2,0 
2004/10/2 18:15,24,0,61,0 ,25.6,0 ,61,0 ,24.5,0 ,23.2,0 
2004/10/2 18:30,23.7,0,64,0 ,25.6,0 ,61,0 ,24.5,0 ,23.3,0 
2004/10/2 18:45,23.3,0,62,0 ,25.6,0 ,61,0 ,24.5,0 ,22.7,0 
2004/10/2 19:00,22.8,0,66,0 ,25.6,0 ,61,0 ,24.6,0 ,22.7,0 
2004/10/2 19:15,22.3,0,70,0 ,25.6,0 ,61,0 ,24.6,0 ,22.8,0 
2004/10/2 19:30,22,0,73,0 ,25.6,0 ,62,0 ,24.7,0 ,22.9,0 
2004/10/2 19:45,21.5,0,76,0 ,25.7,0 ,63,0 ,24.7,0 ,22.6,0 
2004/10/2 20:00,20.9,0,78,0 ,25.6,0 ,64,0 ,24.7,0 ,22.7,0 
2004/10/2 20:15,20.6,0,79,0 ,25.6,0 ,65,0 ,24.7,0 ,22.8,0 
2004/10/2 20:30,20.2,0,78,0 ,25.6,0 ,65,0 ,24.6,0 ,22.9,0 
2004/10/2 20:45,20,0,79,0 ,25.5,0 ,65,0 ,24.6,0 ,23,0 
2004/10/2 21:00,19.9,0,78,0 ,25.5,0 ,65,0 ,24.6,0 ,23,0 
2004/10/2 21:15,19.9,0,78,0 ,25.4,0 ,65,0 ,24.5,0 ,23.1,0 
2004/10/2 21:30,19.7,0,78,0 ,25.4,0 ,65,0 ,24.5,0 ,23.1,0 
2004/10/2 21:45,19.8,0,78,0 ,25.3,0 ,65,0 ,24.5,0 ,23.2,0 
2004/10/2 22:00,19.6,0,79,0 ,25.3,0 ,65,0 ,24.4,0 ,23.2,0 
2004/10/2 22:15,19.3,0,81,0 ,25.3,0 ,65,0 ,24.4,0 ,23.3,0 
2004/10/2 22:30,19.2,0,81,0 ,25.3,0 ,66,0 ,24.4,0 ,23.1,0 
2004/10/2 22:45,18.8,0,82,0 ,25.3,0 ,66,0 ,24.4,0 ,23.1,0 
2004/10/2 23:00,18.6,0,83,0 ,25.3,0 ,66,0 ,24.4,0 ,23.2,0 
2004/10/2 23:15,18.9,0,83,0 ,25.3,0 ,66,0 ,24.4,0 ,23.2,0 
2004/10/2 23:30,18.2,0,86,0 ,25.3,0 ,66,0 ,24.3,0 ,23.2,0 
2004/10/2 23:45,18,0,88,0 ,25.2,0 ,66,0 ,24.3,0 ,23.3,0 
2004/10/3 0:00,17.8,0,89,0 ,25.2,0 ,66,0 ,24.3,0 ,23.1,0 
2004/10/3 0:15,17.5,0,93,0 ,25.2,0 ,66,0 ,24.3,0 ,23.1,0 
2004/10/3 0:30,17.4,0,97,0 ,25.2,0 ,67,0 ,24.4,0 ,23.2,0 
2004/10/3 0:45,17.3,0,98,0 ,25.3,0 ,66,0 ,24.4,0 ,23.2,0 
2004/10/3 1:00,17.3,0,99,0 ,25.3,0 ,66,0 ,24.4,0 ,23.3,0 
2004/10/3 1:15,17,0,99,0 ,25.2,0 ,67,0 ,24.3,0 ,23.4,0 
2004/10/3 1:30,17,0,99,0 ,25.2,0 ,67,0 ,24.3,0 ,23.4,0 
2004/10/3 1:45,16.7,0,99,0 ,25.2,0 ,67,0 ,24.3,0 ,23.4,0 
2004/10/3 2:00,16.7,0,99,0 ,25.1,0 ,67,0 ,24.3,0 ,23.5,0 
2004/10/3 2:15,16.6,0,99,0 ,25.1,0 ,67,0 ,24.3,0 ,23.5,0 
2004/10/3 2:30,16.6,0,99,0 ,25.1,0 ,67,0 ,24.2,0 ,23.5,0 
2004/10/3 2:45,16.2,0,99,0 ,25,0 ,66,0 ,24.2,0 ,23.6,0 
2004/10/3 3:00,16.3,0,99,0 ,24.9,0 ,66,0 ,24.2,0 ,23.6,0 
2004/10/3 3:15,16.2,0,99,0 ,24.9,0 ,66,0 ,24.2,0 ,23.6,0 
2004/10/3 3:30,16.2,0,99,0 ,24.9,0 ,66,0 ,24.2,0 ,23.6,0 
2004/10/3 3:45,16.2,0,97,0 ,24.9,0 ,66,0 ,24.1,0 ,23.6,0 
2004/10/3 4:00,16,0,98,0 ,24.8,0 ,66,0 ,24.1,0 ,23.6,0 
2004/10/3 4:15,15.8,0,99,0 ,24.8,0 ,65,0 ,24.1,0 ,23.4,0 
2004/10/3 4:30,15.8,0,99,0 ,24.8,0 ,65,0 ,24.1,0 ,23.5,0 
2004/10/3 4:45,15.9,0,98,0 ,24.7,0 ,65,0 ,24.1,0 ,23.5,0 
2004/10/3 5:00,15.8,0,96,0 ,24.7,0 ,65,0 ,24,0 ,23.5,0 
2004/10/3 5:15,15.8,0,96,0 ,24.7,0 ,65,0 ,24,0 ,23.6,0 
2004/10/3 5:30,15.7,0,97,0 ,24.6,0 ,64,0 ,24,0 ,23.6,0 
2004/10/3 5:45,15.8,0,96,0 ,24.6,0 ,64,0 ,24,0 ,23.6,0 
2004/10/3 6:00,15.9,0,95,0 ,24.6,0 ,64,0 ,24,0 ,23.4,0 
2004/10/3 6:15,15.9,0,95,0 ,24.6,0 ,64,0 ,24,0 ,23.4,0 
2004/10/3 6:30,15.9,0,96,0 ,24.6,0 ,65,0 ,24,0 ,23.5,0 
2004/10/3 6:45,15.6,0,96,0 ,24.6,0 ,64,0 ,24,0 ,23.5,0 
2004/10/3 7:00,15.6,0,97,0 ,24.6,0 ,64,0 ,24,0 ,23.6,0 
2004/10/3 7:15,15.6,0,98,0 ,24.6,0 ,64,0 ,23.9,0 ,23.6,0 
2004/10/3 7:30,15.6,0,99,0 ,24.7,0 ,64,0 ,23.9,0 ,23.2,0 
2004/10/3 7:45,15.6,0,99,0 ,24.7,0 ,65,0 ,23.9,0 ,23.2,0 
2004/10/3 8:00,15.5,0,99,0 ,24.8,0 ,65,0 ,23.9,0 ,23.3,0 
2004/10/3 8:15,15.5,0,99,0 ,24.8,0 ,65,0 ,23.8,0 ,23.3,0 
2004/10/3 8:30,15.4,0,99,0 ,24.8,0 ,65,0 ,23.8,0 ,23.3,0 
2004/10/3 8:45,15.3,0,99,0 ,24.9,0 ,66,0 ,23.8,0 ,23.4,0 
2004/10/3 9:00,15.2,0,99,0 ,24.8,0 ,65,0 ,23.8,0 ,23.4,0 
2004/10/3 9:15,15.1,0,99,0 ,24.9,0 ,65,0 ,23.7,0 ,23.4,0 
2004/10/3 9:30,15.3,0,99,0 ,24.9,0 ,66,0 ,23.7,0 ,23.4,0 
2004/10/3 9:45,15.1,0,99,0 ,24.9,0 ,65,0 ,23.8,0 ,23,0 
2004/10/3 10:00,15.4,0,99,0 ,24.9,0 ,64,0 ,23.9,0 ,23,0 
2004/10/3 10:15,15.4,0,99,0 ,25,0 ,64,0 ,23.9,0 ,22.8,0 
2004/10/3 10:30,15.5,0,99,0 ,24.9,0 ,63,0 ,23.9,0 ,22.6,0 
2004/10/3 10:45,15.2,0,99,0 ,25,0 ,63,0 ,23.9,0 ,22.6,0 
2004/10/3 11:00,15.2,0,97,0 ,25,0 ,63,0 ,24,0 ,22.7,0 
2004/10/3 11:15,15.2,0,97,0 ,25,0 ,63,0 ,24.1,0 ,22.7,0 
2004/10/3 11:30,15.2,0,97,0 ,25,0 ,64,0 ,24.1,0 ,22.8,0 
2004/10/3 11:45,15,0,97,0 ,25.1,0 ,64,0 ,24.1,0 ,22.8,0 
2004/10/3 12:00,14.9,0,96,0 ,25.1,0 ,64,0 ,24.1,0 ,22.6,0 
2004/10/3 12:15,14.7,0,96,0 ,25.1,0 ,64,0 ,24.1,0 ,22.7,0 
2004/10/3 12:30,14.5,0,97,0 ,25.1,0 ,64,0 ,24.1,0 ,22.8,0 
2004/10/3 12:45,14.5,0,99,0 ,25.1,0 ,66,0 ,24.1,0 ,22.8,0 
2004/10/3 13:00,14.5,0,99,0 ,25.1,0 ,69,0 ,24.2,0 ,22.9,0 
2004/10/3 13:15,14.3,0,99,0 ,25.1,0 ,68,0 ,24.2,0 ,22.5,0 
2004/10/3 13:30,14.3,0,99,0 ,25.1,0 ,68,0 ,24.2,0 ,22.6,0 
2004/10/3 13:45,14.2,0,99,0 ,25,0 ,68,0 ,24.3,0 ,22.7,0 
2004/10/3 14:00,14.2,0,99,0 ,24.9,0 ,68,0 ,24.3,0 ,22.8,0 
2004/10/3 14:15,14.3,0,99,0 ,24.9,0 ,67,0 ,24.3,0 ,22.8,0 
2004/10/3 14:30,14.3,0,99,0 ,24.9,0 ,67,0 ,24.3,0 ,22.9,0 
2004/10/3 14:45,14.4,0,99,0 ,24.8,0 ,67,0 ,24.3,0 ,22.9,0 
2004/10/3 15:00,14.5,0,99,0 ,24.8,0 ,66,0 ,24.2,0 ,23,0 
2004/10/3 15:15,14.3,0,99,0 ,24.7,0 ,66,0 ,24.1,0 ,23,0 
2004/10/3 15:30,14.3,0,99,0 ,24.7,0 ,65,0 ,24.1,0 ,23,0 
2004/10/3 15:45,14.3,0,99,0 ,24.6,0 ,65,0 ,24,0 ,23.1,0 
2004/10/3 16:00,14.3,0,99,0 ,24.6,0 ,65,0 ,24,0 ,22.6,0 
2004/10/3 16:15,14.3,0,99,0 ,24.6,0 ,65,0 ,23.9,0 ,22.4,0 
2004/10/3 16:30,14.3,0,99,0 ,24.6,0 ,65,0 ,23.9,0 ,22.5,0 
2004/10/3 16:45,14.3,0,99,0 ,24.6,0 ,65,0 ,23.9,0 ,22.4,0 
2004/10/3 17:00,14.3,0,99,0 ,24.5,0 ,64,0 ,23.9,0 ,22.4,0 
2004/10/3 17:15,14.3,0,99,0 ,24.5,0 ,64,0 ,23.8,0 ,22.5,0 
2004/10/3 17:30,14.2,0,99,0 ,24.5,0 ,63,0 ,23.8,0 ,22.5,0 
2004/10/3 17:45,14.2,0,99,0 ,24.4,0 ,63,0 ,23.7,0 ,22.6,0 
2004/10/3 18:00,14.2,0,99,0 ,24.3,0 ,63,0 ,23.7,0 ,22.6,0 
2004/10/3 18:15,14,0,98,0 ,24.4,0 ,62,0 ,23.6,0 ,22.7,0 
2004/10/3 18:30,14.2,0,99,0 ,24.3,0 ,62,0 ,23.6,0 ,22.7,0 
2004/10/3 18:45,14.1,0,99,0 ,24.3,0 ,62,0 ,23.6,0 ,22.7,0 
2004/10/3 19:00,14,0,99,0 ,24.2,0 ,61,0 ,23.5,0 ,22.7,0 
2004/10/3 19:15,14,0,99,0 ,24.2,0 ,61,0 ,23.5,0 ,22.8,0 
2004/10/3 19:30,14,0,99,0 ,24.2,0 ,62,0 ,23.6,0 ,22.4,0 
2004/10/3 19:45,14.1,0,99,0 ,24.3,0 ,63,0 ,23.7,0 ,22.4,0 
2004/10/3 20:00,14,0,99,0 ,24.3,0 ,64,0 ,23.8,0 ,22.5,0 
2004/10/3 20:15,14,0,99,0 ,24.4,0 ,64,0 ,23.8,0 ,22.1,0 
2004/10/3 20:30,13.8,0,99,0 ,24.4,0 ,64,0 ,23.9,0 ,22.2,0 
2004/10/3 20:45,13.7,0,99,0 ,24.5,0 ,64,0 ,23.9,0 ,22.3,0 
2004/10/3 21:00,13.7,0,99,0 ,24.5,0 ,65,0 ,23.9,0 ,22.4,0 
2004/10/3 21:15,13.7,0,99,0 ,24.5,0 ,65,0 ,24,0 ,22.2,0 
2004/10/3 21:30,13.6,0,99,0 ,24.5,0 ,65,0 ,23.9,0 ,22.3,0 
2004/10/3 21:45,13.6,0,99,0 ,24.5,0 ,65,0 ,23.9,0 ,22.4,0 
2004/10/3 22:00,13.4,0,99,0 ,24.5,0 ,64,0 ,23.9,0 ,22.5,0 
2004/10/3 22:15,13.5,0,99,0 ,24.5,0 ,64,0 ,23.9,0 ,22.5,0 
2004/10/3 22:30,13.4,0,99,0 ,24.5,0 ,63,0 ,23.8,0 ,22.6,0 
2004/10/3 22:45,13.5,0,99,0 ,24.5,0 ,63,0 ,23.8,0 ,22.6,0 
2004/10/3 23:00,13.4,0,99,0 ,24.5,0 ,63,0 ,23.7,0 ,22.3,0 
2004/10/3 23:15,13.5,0,99,0 ,24.4,0 ,63,0 ,23.7,0 ,22.4,0 
2004/10/3 23:30,13.6,0,99,0 ,24.4,0 ,64,0 ,23.7,0 ,22.4,0 
2004/10/3 23:45,13.6,0,99,0 ,24.3,0 ,65,0 ,23.7,0 ,22.5,0 
2004/10/4 0:00,13.6,0,99,0 ,24.2,0 ,66,0 ,23.6,0 ,22.5,0 
2004/10/4 0:15,13.5,0,99,0 ,24.2,0 ,66,0 ,23.6,0 ,22.6,0 
2004/10/4 0:30,13.4,0,99,0 ,24.2,0 ,66,0 ,23.6,0 ,22.6,0 
2004/10/4 0:45,13.4,0,99,0 ,24.1,0 ,66,0 ,23.6,0 ,22.6,0 
2004/10/4 1:00,13.4,0,99,0 ,24,0 ,66,0 ,23.5,0 ,22.7,0 
2004/10/4 1:15,13.4,0,99,0 ,24,0 ,66,0 ,23.5,0 ,22.7,0 
2004/10/4 1:30,13.5,0,99,0 ,24,0 ,66,0 ,23.4,0 ,22.7,0 
2004/10/4 1:45,13.4,0,99,0 ,23.9,0 ,66,0 ,23.4,0 ,22.7,0 
2004/10/4 2:00,13.5,0,99,0 ,23.9,0 ,66,0 ,23.4,0 ,22.8,0 
2004/10/4 2:15,13.6,0,99,0 ,23.9,0 ,65,0 ,23.4,0 ,22.8,0 
2004/10/4 2:30,13.5,0,99,0 ,23.8,0 ,65,0 ,23.4,0 ,22.4,0 
2004/10/4 2:45,13.6,0,99,0 ,23.8,0 ,65,0 ,23.3,0 ,22.5,0 
2004/10/4 3:00,13.6,0,99,0 ,23.8,0 ,65,0 ,23.3,0 ,22.6,0 
2004/10/4 3:15,13.6,0,99,0 ,23.7,0 ,65,0 ,23.3,0 ,22.6,0 
2004/10/4 3:30,13.4,0,99,0 ,23.8,0 ,65,0 ,23.2,0 ,22.6,0 
2004/10/4 3:45,13.5,0,99,0 ,23.7,0 ,65,0 ,23.2,0 ,22.6,0 
2004/10/4 4:00,13.6,0,99,0 ,23.7,0 ,64,0 ,23.2,0 ,22.7,0 
2004/10/4 4:15,13.6,0,99,0 ,23.7,0 ,64,0 ,23.2,0 ,22.7,0 
2004/10/4 4:30,13.6,0,99,0 ,23.7,0 ,64,0 ,23.2,0 ,22.7,0 
2004/10/4 4:45,13.6,0,99,0 ,23.7,0 ,65,0 ,23.2,0 ,22.7,0 
2004/10/4 5:00,13.7,0,99,0 ,23.7,0 ,65,0 ,23.2,0 ,22.7,0 
2004/10/4 5:15,13.8,0,99,0 ,23.6,0 ,65,0 ,23.2,0 ,22.8,0 
2004/10/4 5:30,13.9,0,99,0 ,23.6,0 ,65,0 ,23.1,0 ,22.8,0 
2004/10/4 5:45,14,0,99,0 ,23.6,0 ,64,0 ,23.1,0 ,22.8,0 
2004/10/4 6:00,14,0,99,0 ,23.6,0 ,64,0 ,23.2,0 ,22.8,0 
2004/10/4 6:15,14.1,0,99,0 ,23.6,0 ,64,0 ,23.3,0 ,22.9,0 
2004/10/4 6:30,14.1,0,99,0 ,23.6,0 ,65,0 ,23.3,0 ,22.9,0 
2004/10/4 6:45,14.2,0,99,0 ,23.6,0 ,65,0 ,23.3,0 ,22.9,0 
2004/10/4 7:00,14.3,0,99,0 ,23.7,0 ,66,0 ,23.3,0 ,22.6,0 
2004/10/4 7:15,14.3,0,99,0 ,23.7,0 ,66,0 ,23.3,0 ,22.1,0 
2004/10/4 7:30,14.7,0,99,0 ,23.7,0 ,66,0 ,23.3,0 ,22.2,0 
2004/10/4 7:45,14.9,0,99,0 ,23.7,0 ,66,0 ,23.3,0 ,21.8,0 
2004/10/4 8:00,14.9,0,99,0 ,23.7,0 ,66,0 ,23.4,0 ,21.9,0 
2004/10/4 8:15,14.9,0,99,0 ,23.8,0 ,67,0 ,23.5,0 ,22,0 
2004/10/4 8:30,14.9,0,99,0 ,23.8,0 ,67,0 ,23.5,0 ,22,0 
2004/10/4 8:45,14.9,0,99,0 ,23.8,0 ,67,0 ,23.5,0 ,22,0 
2004/10/4 9:00,14.8,0,99,0 ,23.8,0 ,67,0 ,23.5,0 ,22.1,0 
2004/10/4 9:15,14.9,0,99,0 ,23.8,0 ,67,0 ,23.4,0 ,22.1,0 
2004/10/4 9:30,15,0,99,0 ,23.8,0 ,66,0 ,23.4,0 ,22.2,0 
2004/10/4 9:45,15.1,0,99,0 ,23.8,0 ,67,0 ,23.4,0 ,22.2,0 
2004/10/4 10:00,15.4,0,99,0 ,23.8,0 ,66,0 ,23.3,0 ,22.3,0 
2004/10/4 10:15,15.4,0,98,0 ,23.8,0 ,66,0 ,23.3,0 ,22.3,0 
2004/10/4 10:30,15.6,0,98,0 ,23.8,0 ,66,0 ,23.2,0 ,22.4,0 
2004/10/4 10:45,15.8,0,97,0 ,23.7,0 ,66,0 ,23.2,0 ,22.4,0 
2004/10/4 11:00,15.6,0,95,0 ,23.7,0 ,65,0 ,23.2,0 ,22.4,0 
2004/10/4 11:15,15.6,0,95,0 ,23.7,0 ,65,0 ,23.2,0 ,22.5,0 
2004/10/4 11:30,15.8,0,95,0 ,23.7,0 ,65,0 ,23.1,0 ,22.5,0 
2004/10/4 11:45,15.8,0,94,0 ,23.7,0 ,65,0 ,23.1,0 ,22.5,0 
2004/10/4 12:00,15.8,0,94,0 ,23.7,0 ,64,0 ,23.1,0 ,22.5,0 
2004/10/4 12:15,15.8,0,95,0 ,23.6,0 ,64,0 ,23.1,0 ,22.5,0 
2004/10/4 12:30,16.1,0,95,0 ,23.6,0 ,64,0 ,23.1,0 ,22.2,0 
2004/10/4 12:45,15.8,0,93,0 ,23.7,0 ,65,0 ,23,0 ,22.3,0 
2004/10/4 13:00,15.8,0,94,0 ,23.7,0 ,65,0 ,23,0 ,22.3,0 
2004/10/4 13:15,15.8,0,95,0 ,23.7,0 ,65,0 ,23,0 ,22.4,0 
2004/10/4 13:30,15.8,0,96,0 ,23.7,0 ,64,0 ,23,0 ,22.4,0 
2004/10/4 13:45,15.9,0,96,0 ,23.6,0 ,64,0 ,23,0 ,22.4,0 
2004/10/4 14:00,15.9,0,95,0 ,23.7,0 ,64,0 ,23,0 ,22.3,0 
2004/10/4 14:15,15.7,0,95,0 ,23.7,0 ,64,0 ,23,0 ,22.4,0 
2004/10/4 14:30,15.8,0,96,0 ,23.7,0 ,64,0 ,22.9,0 ,22.4,0 
2004/10/4 14:45,15.7,0,97,0 ,23.7,0 ,64,0 ,22.9,0 ,22.4,0 
2004/10/4 15:00,15.6,0,98,0 ,23.7,0 ,64,0 ,22.9,0 ,22.5,0 
2004/10/4 15:15,15.8,0,98,0 ,23.7,0 ,63,0 ,22.9,0 ,22.5,0 
2004/10/4 15:30,15.6,0,98,0 ,23.7,0 ,63,0 ,22.9,0 ,22.5,0 
2004/10/4 15:45,15.6,0,98,0 ,23.7,0 ,63,0 ,22.9,0 ,22.6,0 
2004/10/4 16:00,15.6,0,99,0 ,23.7,0 ,63,0 ,22.9,0 ,22.6,0 
2004/10/4 16:15,15.8,0,99,0 ,23.7,0 ,63,0 ,22.9,0 ,22.6,0 
2004/10/4 16:30,15.8,0,99,0 ,23.7,0 ,62,0 ,22.9,0 ,22.6,0 
2004/10/4 16:45,15.8,0,98,0 ,23.7,0 ,63,0 ,22.9,0 ,22.6,0 
2004/10/4 17:00,15.6,0,98,0 ,23.7,0 ,62,0 ,22.8,0 ,22.6,0 
2004/10/4 17:15,15.7,0,98,0 ,23.7,0 ,62,0 ,22.8,0 ,22.7,0 
2004/10/4 17:30,15.6,0,98,0 ,23.7,0 ,62,0 ,22.8,0 ,22.6,0 
2004/10/4 17:45,15.6,0,98,0 ,23.8,0 ,62,0 ,22.8,0 ,22.3,0 
2004/10/4 18:00,15.6,0,97,0 ,23.7,0 ,62,0 ,22.8,0 ,22.3,0 
2004/10/4 18:15,15.6,0,97,0 ,23.8,0 ,62,0 ,22.8,0 ,22.3,0 
2004/10/4 18:30,15.6,0,97,0 ,23.8,0 ,62,0 ,22.9,0 ,22.1,0 
2004/10/4 18:45,15.5,0,98,0 ,23.8,0 ,64,0 ,23.1,0 ,22.1,0 
2004/10/4 19:00,15.5,0,99,0 ,23.9,0 ,64,0 ,23.1,0 ,22.2,0 
2004/10/4 19:15,15.5,0,99,0 ,23.9,0 ,64,0 ,23.1,0 ,22.2,0 
2004/10/4 19:30,15.5,0,99,0 ,23.9,0 ,64,0 ,23.1,0 ,22.3,0 
2004/10/4 19:45,15.4,0,99,0 ,23.9,0 ,64,0 ,23.1,0 ,22.3,0 
2004/10/4 20:00,15.5,0,99,0 ,24,0 ,64,0 ,23.1,0 ,22.3,0 
2004/10/4 20:15,15.6,0,99,0 ,24,0 ,64,0 ,23.2,0 ,22,0 
2004/10/4 20:30,15.8,0,99,0 ,24,0 ,65,0 ,23.2,0 ,21.9,0 
2004/10/4 20:45,15.8,0,99,0 ,24,0 ,65,0 ,23.2,0 ,21.8,0 
2004/10/4 21:00,15.6,0,99,0 ,24,0 ,65,0 ,23.2,0 ,21.9,0 
2004/10/4 21:15,15.6,0,99,0 ,24,0 ,66,0 ,23.3,0 ,21.8,0 
2004/10/4 21:30,15.5,0,99,0 ,24.1,0 ,67,0 ,23.4,0 ,21.9,0 
2004/10/4 21:45,15.6,0,99,0 ,24.1,0 ,67,0 ,23.3,0 ,21.8,0 
2004/10/4 22:00,15.8,0,99,0 ,24,0 ,66,0 ,23.3,0 ,21.9,0 
2004/10/4 22:15,15.7,0,99,0 ,24.1,0 ,65,0 ,23.2,0 ,22,0 
2004/10/4 22:30,15.5,0,99,0 ,24,0 ,65,0 ,23.2,0 ,22,0 
2004/10/4 22:45,15.5,0,99,0 ,24,0 ,66,0 ,23.2,0 ,21.5,0 
2004/10/4 23:00,15.5,0,99,0 ,23.9,0 ,67,0 ,23.2,0 ,21.7,0 
2004/10/4 23:15,15.6,0,99,0 ,23.9,0 ,67,0 ,23.1,0 ,21.8,0 
2004/10/4 23:30,15.6,0,99,0 ,23.8,0 ,67,0 ,23.1,0 ,21.8,0 
2004/10/4 23:45,15.7,0,99,0 ,23.8,0 ,67,0 ,23.1,0 ,21.9,0 
2004/10/5 0:00,15.6,0,99,0 ,23.8,0 ,67,0 ,23,0 ,21.9,0 
2004/10/5 0:15,15.6,0,99,0 ,23.8,0 ,67,0 ,23,0 ,21.9,0 
2004/10/5 0:30,15.8,0,99,0 ,23.8,0 ,67,0 ,23,0 ,22,0 
2004/10/5 0:45,15.7,0,99,0 ,23.7,0 ,67,0 ,23,0 ,22,0 
2004/10/5 1:00,15.8,0,99,0 ,23.7,0 ,67,0 ,22.9,0 ,22,0 
2004/10/5 1:15,15.7,0,99,0 ,23.7,0 ,67,0 ,22.9,0 ,22.1,0 
2004/10/5 1:30,15.8,0,99,0 ,23.6,0 ,67,0 ,22.9,0 ,22.1,0 
2004/10/5 1:45,15.9,0,99,0 ,23.6,0 ,67,0 ,22.9,0 ,22.1,0 
2004/10/5 2:00,15.8,0,99,0 ,23.6,0 ,67,0 ,22.9,0 ,22.1,0 
2004/10/5 2:15,15.8,0,99,0 ,23.5,0 ,67,0 ,22.8,0 ,22.2,0 
2004/10/5 2:30,15.8,0,99,0 ,23.5,0 ,67,0 ,22.8,0 ,22.2,0 
2004/10/5 2:45,15.8,0,99,0 ,23.5,0 ,67,0 ,22.8,0 ,22.2,0 
2004/10/5 3:00,15.8,0,99,0 ,23.5,0 ,67,0 ,22.8,0 ,22.2,0 
2004/10/5 3:15,15.8,0,99,0 ,23.4,0 ,67,0 ,22.8,0 ,22.2,0 
2004/10/5 3:30,15.8,0,99,0 ,23.5,0 ,66,0 ,22.7,0 ,22.2,0 
2004/10/5 3:45,15.9,0,99,0 ,23.4,0 ,66,0 ,22.7,0 ,22.3,0 
2004/10/5 4:00,15.7,0,99,0 ,23.4,0 ,66,0 ,22.7,0 ,22.3,0 
2004/10/5 4:15,15.6,0,99,0 ,23.4,0 ,66,0 ,22.7,0 ,22.3,0 
2004/10/5 4:30,15.6,0,99,0 ,23.4,0 ,66,0 ,22.7,0 ,22.3,0 
2004/10/5 4:45,15.6,0,99,0 ,23.4,0 ,67,0 ,22.7,0 ,22.3,0 
2004/10/5 5:00,15.8,0,99,0 ,23.4,0 ,67,0 ,22.7,0 ,22.3,0 
2004/10/5 5:15,15.8,0,99,0 ,23.3,0 ,66,0 ,22.7,0 ,22.3,0 